This is the latest recevied weather packets stored in our database for station/object N0NPO. If no packets are shown the sender has not sent any weather packets the latest 10 day(s).
| Time | Temp. | Humidity | Pressure | Rain* | Wind** | Luminosity | Snow |
|---|---|---|---|---|---|---|---|
| 1778116809 | 11.11° C | 1% | 1016.4 hPa | 0 mm | - | 17 W/m² | - |
| 1778116507 | 11.67° C | 1% | 1016.3 hPa | 0 mm | - | 23 W/m² | - |
| 1778116202 | 11.67° C | 1% | 1016.4 hPa | 0 mm | - | 26 W/m² | - |
| 1778115897 | 11.67° C | 1% | 1016.3 hPa | 0 mm | - | 31 W/m² | - |
| 1778115594 | 12.22° C | 1% | 1016.5 hPa | 0 mm | - | 27 W/m² | - |
| 1778115291 | 12.78° C | 1% | 1016.7 hPa | 0 mm | - | 37 W/m² | - |
| 1778114988 | 12.78° C | 1% | 1016.4 hPa | 0 mm | - | 69 W/m² | - |
| 1778114684 | 12.78° C | 1% | 1016.5 hPa | 0 mm | - | 78 W/m² | - |
| 1778114382 | 12.78° C | 1% | 1016.8 hPa | 0 mm | - | 94 W/m² | - |
| 1778114077 | 12.78° C | 1% | 1016.8 hPa | 0 mm | - | 104 W/m² | - |
| 1778113772 | 12.78° C | 1% | 1017 hPa | 0 mm | - | 120 W/m² | - |
| 1778113469 | 13.33° C | 1% | 1016.9 hPa | 0 mm | - | 127 W/m² | - |
| 1778113166 | 12.78° C | 1% | 1017 hPa | 0 mm | - | 141 W/m² | - |
| 1778112863 | 12.78° C | 1% | 1017 hPa | 0 mm | - | 159 W/m² | - |
| 1778112560 | 13.33° C | 1% | 1017.2 hPa | 0 mm | - | 56 W/m² | - |
| 1778112255 | 13.33° C | 1% | 1017.2 hPa | 0 mm | - | 198 W/m² | - |
| 1778111951 | 13.33° C | 1% | 1017.2 hPa | 0 mm | - | 172 W/m² | - |
| 1778111649 | 12.22° C | 1% | 1017.2 hPa | 0 mm | - | 146 W/m² | - |
| 1778111344 | 11.67° C | 1% | 1017.3 hPa | 0 mm | - | 93 W/m² | - |
| 1778111043 | 12.78° C | 1% | 1017.2 hPa | 0 mm | - | 128 W/m² | - |
| 1778110740 | 13.33° C | 1% | 1017.5 hPa | 0 mm | - | 207 W/m² | - |
| 1778110435 | 13.33° C | 1% | 1017.5 hPa | 0 mm | - | 276 W/m² | - |
| 1778110133 | 13.33° C | 1% | 1017.5 hPa | 0 mm | - | 268 W/m² | - |
| 1778109829 | 12.78° C | 1% | 1017.7 hPa | 0 mm | - | 321 W/m² | - |
| 1778109525 | 12.22° C | 1% | 1017.4 hPa | 0 mm | - | 351 W/m² | - |
* Rain latest hour (hover to see other rain measurements)
** Current wind speed in m/s (hover to see current wind gust speed)